Quincy, IL

10:03 PM CDT on June 25, 2017 (GMT -0500)
Quincy Regional-Baldwin

Weather History for KUIN - March, 2015

Change the Weather History Date:

Saturday, March 28, 2015

  Actual Average Record
Temperature  
Mean Temperature 35 °F 47 °F  
Max Temperature 44 °F 57 °F 84 °F (1985)
Min Temperature 25 °F 37 °F 17 °F (1955)
Degree Days  
Heating Degree Days 30 19  
Month to date heating degree days 673 666  
Since 1 July heating degree days 5339 5008  
Cooling Degree Days 0 0  
Month to date cooling degree days 0 0  
Year to date cooling degree days 0 0  
Moisture  
Dew Point 16 °F    
Average Humidity 48    
Maximum Humidity 63    
Minimum Humidity 33    
Precipitation  
Precipitation 0.00 in 0.09 in 2.27 in (1977)
Month to date precipitation 0.95 2.18  
Year to date precipitation 2.99 5.58  
Sea Level Pressure  
Sea Level Pressure 30.26 in    
Wind  
Wind Speed 9 mph (SE)    
Max Wind Speed 13 mph    
Max Gust Speed 16 mph    
Visibility 10 miles    
Events      
T = Trace of Precipitation, MM = Missing Value Source: NWS Daily Summary

Daily Weather History Graph

Daily Weather History Graph

Search for Another Location

Airport or City:

Trip Planner

Search our weather history database for the weather conditions in past years. The results will help you decide how hot, cold, wet, or windy it might be!

Date:

Astronomy

Mar. 28, 2015 Rise Set
Actual Time 6:55 AM CDT 7:24 PM CDT
Civil Twilight 6:28 AM CDT 7:51 PM CDT
Nautical Twilight 5:56 AM CDT 8:23 PM CDT
Astronomical Twilight 5:23 AM CDT 8:56 PM CDT
Moon 1:26 PM CDT (3/28) 3:00 AM CDT (3/28)
Length of Visible Light 13h 23m
Length of Day
12h 29m
Waxing Gibbous, 63% of the Moon is Illuminated
Mar 28
Waxing Gibbous
Apr 4
Full
Apr 11
Last Quarter
Apr 18
New
Apr 25
First Quarter

Hourly Weather History & Observations

Time (CDT) Temp. Windchill Dew Point Humidity Pressure Visibility Wind Dir Wind Speed Gust Speed Precip Events Conditions
12:54 AM 30.0 °F 23.2 °F 12.0 °F 47% 30.21 in 10.0 mi East 6.9 mph - N/A   Clear
1:54 AM 28.0 °F 20.8 °F 12.9 °F 53% 30.21 in 10.0 mi ESE 6.9 mph - N/A   Clear
2:54 AM 27.0 °F 19.5 °F 14.0 °F 58% 30.20 in 10.0 mi ESE 6.9 mph - N/A   Clear
3:54 AM 26.1 °F 19.4 °F 15.1 °F 63% 30.21 in 10.0 mi SE 5.8 mph - N/A   Clear
4:54 AM 26.1 °F 19.4 °F 15.1 °F 63% 30.22 in 10.0 mi ESE 5.8 mph - N/A   Clear
5:54 AM 26.1 °F 18.4 °F 16.0 °F 66% 30.24 in 10.0 mi East 6.9 mph - N/A   Clear
6:54 AM 26.1 °F 19.4 °F 16.0 °F 66% 30.27 in 10.0 mi ESE 5.8 mph - N/A   Scattered Clouds
7:54 AM 28.0 °F 19.3 °F 17.1 °F 63% 30.29 in 10.0 mi SE 9.2 mph - N/A   Partly Cloudy
8:54 AM 30.0 °F 21.1 °F 17.1 °F 59% 30.31 in 10.0 mi SE 10.4 mph - N/A   Clear
9:54 AM 33.1 °F 24.9 °F 16.0 °F 50% 30.33 in 10.0 mi SE 10.4 mph - N/A   Clear
10:54 AM 35.1 °F 27.4 °F 16.0 °F 46% 30.33 in 10.0 mi SE 10.4 mph - N/A   Clear
11:54 AM 37.0 °F 30.4 °F 14.0 °F 39% 30.33 in 10.0 mi ESE 9.2 mph - N/A   Clear
12:54 PM 39.0 °F 32.3 °F 16.0 °F 39% 30.32 in 10.0 mi SSE 10.4 mph - N/A   Clear
1:54 PM 41.0 °F 36.4 °F 17.1 °F 38% 30.30 in 10.0 mi Variable 6.9 mph - N/A   Clear
2:54 PM 42.1 °F 36.1 °F 17.1 °F 37% 30.28 in 10.0 mi SE 10.4 mph - N/A   Clear
3:54 PM 43.0 °F 38.8 °F 16.0 °F 34% 30.27 in 10.0 mi East 6.9 mph - N/A   Clear
4:54 PM 43.0 °F 37.7 °F 15.1 °F 32% 30.26 in 10.0 mi SE 9.2 mph - N/A   Clear
5:54 PM 42.8 °F 37.0 °F 15.8 °F 34% 30.23 in 10.0 mi SE 10.4 mph - N/A   Clear
6:54 PM 41.0 °F 35.8 °F 19.0 °F 41% 30.24 in 10.0 mi SE 8.1 mph - N/A   Clear
7:54 PM 37.0 °F 30.4 °F 19.0 °F 48% 30.25 in 10.0 mi SE 9.2 mph - N/A   Clear
8:54 PM 36.0 °F 29.0 °F 18.0 °F 48% 30.25 in 10.0 mi ESE 9.2 mph - N/A   Clear
9:54 PM 34.0 °F 26.0 °F 19.0 °F 54% 30.25 in 10.0 mi SE 10.4 mph - N/A   Clear
10:54 PM 33.1 °F 24.9 °F 21.0 °F 61% 30.25 in 10.0 mi SE 10.4 mph - N/A   Clear
11:54 PM 34.0 °F 26.0 °F 19.9 °F 56% 30.24 in 10.0 mi SSE 10.4 mph - N/A   Clear